www.pogodaiklimat.ru

Погода и климат >> Архив погоды >> Узбекистан >> Шахрисабз


ПОГОДА в Шахрисабзе

  • Прогноз погоды в Шахрисабзе
  • Монитор погоды в Шахрисабзе

АРХИВ ПОГОДЫ в Шахрисабзе

Время (UTC), дата Ветер
(напр.,м/с)
 
Видим.   Явления Облачность Т
(С)
Тd
(С)
f
(%)
Тe
(С)
Тes
(С)
Комфортность P
(гПа)
Po
(гПа)
Тmin
(С)
Tmax
(С)
R
(мм)
R24
(мм)
S
(см)
15 18.06 СВ 4 50 км 10/1 1000 м
[Cu med, cong Ci fib]
+29.5 +5.8 22 +28 +28 жарко 1001.9 934.4 +34.4
18 18.06 С 4 н/о 10/0
[Ci fib]
+26.7 +5.6 26 +26 +26 жарко 1003.4 934.9 +34.4
21 18.06 СВ 3 н/о 10/0
[Ci fib]
+23.9 +9.7 41 +25 +25 комфорт 1003.6 934.5
00 19.06 В 4 50 км 10/0
[Ci fib]
+21.8 +7.0 38 +23 +23 комфорт 1003.8 934.2
03 19.06 СВ 2 50 км 4/0
[Ci fib]
+26.0 +9.0 34 +26 +32 жарко 1002.7 934.2
06 19.06 Ю 2 50 км 5/0
[Ci fib]
+32.0 +8.6 23 +31 +47 жарко 1001.8 934.6 +21.2
12 19.06 З 3 50 км 8/4 1000 м
[Cu med, cong Ci fib]
+32.8 +6.8 20 +31 +34 жарко 1001.5 934.5
15 19.06 ЮЗ 3 50 км 8/4 1000 м
[Cb cap Ci fib]
+29.2 +6.2 23 +28 +28 жарко 1003.0 935.2 +34.2
18 19.06 В 3 н/о 5/0
[Ci fib]
+24.6 +6.8 32 +25 +25 комфорт 1004.7 935.7 +34.2
21 19.06 СВ 3 н/о ясно +20.6 +10.3 52 +23 +23 комфорт 1006.1 936.2
00 20.06 СВ 3 50 км 3/0
[Ci fib]
+20.4 +9.5 50 +22 +22 комфорт 1005.5 935.6
03 20.06 СВ 2 50 км 1/0
[Ci fib]
+24.8 +10.4 40 +26 +32 жарко 1005.2 936.3
06 20.06 СЗ 2 50 км 3/1 1000 м
[Cu med, cong Ci fib]
+31.1 +8.8 25 +30 +46 жарко 1003.5 936.0 +20.0
09 20.06 СВ 3 50 км 4/1 1000 м
[Cu med, cong Ci fib]
+33.1 +7.1 20 +31 +44 жарко 1002.3 935.3
12 20.06 С 4 50 км 4/3 1000 м
[Cu med, cong Ci fib]
+33.5 +6.2 18 +31 +34 жарко 1001.1 934.3
15 20.06 С 4 50 км 1/1 1000 м
[Cu med, cong]
+30.5 +7.1 23 +29 +29 жарко 1001.9 934.4 +34.2
18 20.06 СВ 3 н/о ясно +26.5 +5.0 25 +26 +26 жарко 1003.2 934.7 +34.2
21 20.06 С 3 н/о ясно +22.9 +8.9 41 +24 +24 комфорт 1004.5 935.2
00 21.06 СВ 3 50 км ясно +21.9 +9.9 46 +23 +23 комфорт 1004.1 934.6
03 21.06 В 3 50 км ясно +25.2 +12.0 44 +27 +32 жарко 1003.6 934.9
09 21.06 ЮЗ 3 50 км 5/3 1000 м
[Cu med, cong Ci fib]
+35.4 +9.4 20 +34 +44 очень
жарко
1002.1 935.6
12 21.06 В 3 50 км 4/1 1000 м
[Cu med, cong Ci fib]
+36.2 +10.9 22 +35 +40 очень
жарко
1001.0 934.8
15 21.06 В 3 50 км 4/1 1000 м
[Cu med, cong Ci fib]
+31.5 +8.5 24 +30 +30 жарко 1002.0 934.7 +36.6
18 21.06 В 3 н/о ясно +28.4 +7.1 26 +28 +28 жарко 1003.3 935.3 +36.6
21 21.06 СВ 3 н/о ясно +25.3 +9.2 36 +26 +26 жарко 1003.9 935.2
00 22.06 СВ 2 50 км 1/0
[Ci fib]
+23.2 +10.0 43 +25 +25 комфорт 1004.6 935.3
03 22.06 С 3 50 км 3/0
[Ci fib]
+27.4 +10.4 35 +28 +33 жарко 1004.9 936.5
06 22.06 СЗ 3 50 км 8/4 1000 м
[Cu med, cong Ac cast Ci fib]
+33.8 +6.2 18 +32 +38 жарко 1004.3 937.3 +22.8
12 22.06 С 4 50 км 5/3 1000 м
[Cu med, cong Ci fib]
+34.5 +5.0 16 +32 +35 жарко 1003.3 936.5
15 22.06 С 3 50 км 5/3 1000 м
[Cu med, cong Ci fib]
+30.1 +6.1 22 +29 +29 жарко 1004.9 937.1 +35.9
18 22.06 С 3 н/о ясно +26.2 +6.2 28 +26 +26 жарко 1006.5 937.7 +35.9
21 22.06 СВ 2 н/о ясно +23.9 +8.6 38 +25 +25 комфорт 1007.0 937.7
00 23.06 ЮВ 2 50 км 3/0
[Ci fib]
+19.8 +8.2 47 +21 +21 комфорт 1007.2 937.0
03 23.06 Ю 2 50 км 1/0
[Ci fib]
+25.2 +9.8 38 +26 +32 жарко 1006.2 937.3
06 23.06 З 5 50 км 1/1 1000 м
[Cu med, cong]
+32.8 +2.7 15 +30 +39 жарко 1005.3 937.9 +19.0
09 23.06 ЮВ 4 50 км 3/1 1000 м
[Cu med, cong]
+33.2 +4.0 16 +31 +41 жарко 1004.8 937.5
12 23.06 СВ 3 50 км 5/3 1000 м
[Cb cap Ci fib]
+33.4 +6.7 19 +31 +35 жарко 1004.0 937.0
15 23.06 В 4 50 км 3/1 1000 м
[Cu med, cong Ci fib]
+30.5 +6.1 22 +29 +29 жарко 1006.2 938.4 +34.3
18 23.06 В 2 н/о ясно +25.4 +8.4 34 +26 +26 жарко 1007.2 938.3
21 23.06 С 2 н/о ясно +25.3 +8.4 34 +26 +26 жарко 1007.1 938.1
00 24.06 В 1 50 км ясно +21.0 +8.5 45 +24 +24 комфорт 1008.7 938.6
03 24.06 ЮВ 2 50 км 1/0
[Ci fib]
+25.5 +9.3 36 +26 +32 жарко 1007.7 938.7
06 24.06 ЮЗ 2 50 км 3/3 1000 м
[Cu med, cong]
+31.5 +8.6 24 +30 +43 жарко 1007.8 940.1 +20.4
09 24.06 З 3 50 км 5/4 1000 м
[Cb cap Ci fib]
+33.8 +7.3 19 +32 +41 жарко 1006.8 939.6
12 24.06 СЗ 4 50 км 5/4 1000 м
[Cb cap Ci fib]
+34.2 +6.1 17 +32 +34 жарко 1005.7 938.7
15 24.06 ЮЗ 5 50 км 4/3 1000 м
[Cb cap Ci fib]
+31.0 +6.8 22 +30 +30 жарко 1006.3 938.5 +34.8
03 25.06 ЮВ 2 50 км 3/0
[Ci fib]
+25.7 +9.3 35 +26 +32 жарко 1008.5 939.5

 

Местоположение метеостанции Шахрисабз (Кашкадарьинская область, Узбекистан): широта 39.05 долгота 66.83 высота над уровнем моря 622 м.

В архиве по умолчанию представлена погода в Шахрисабзе за последнюю неделю. Архивные данные за месяц целиком и за предыдущие месяцы, начиная с января 2011 года, Вы можете получить, выбрав интересующий диапазон дат из раскрывающегося списка и нажав кнопку "Ввод!".


*Определитесь, кто Вы:
робот инопланетянин человек

Внимание! Время в таблицах - всемирное. Для получения местного времени необходимо прибавить поправку, которая равна 5 ч.

Смотрите также архив погоды в соседних городах и на ближайших метеорологических станциях:

Погода в Минчукуре (Кашкадарьинская область, Узбекистан) (45 км)
Погода на Леднике Северцова (Кашкадарьинская область, Узбекистан) (59 км)
Погода в Самарканде (Самаркандская область, Узбекистан) (59 км)
Погода в Гузаре (Кашкадарьинская область, Узбекистан) (68 км)
Погода в Нурабаде (Самаркандская область, Узбекистан) (77 км)
Погода в Дагбите (Самаркандская область, Узбекистан) (78 км)
Погода в Дехканабаде (Сырдарьинская область, Узбекистан) (83 км)
Погода в Пенджикенте (Таджикистан) (84 км)
Погода в Самарканд аэропорту (Самаркандская область, Узбекистан) (85 км)
Погода в Акрабате (Узбекистан) (89 км)

Пояснения к столбцам:

Ветер - указаны скорость ветра в м/с - средняя за 10 мин, порывы в срок и между сроками (в фигурных скобках) и направление, откуда дует ветер: С - северный, СВ - северо-восточный, В - восточный, ЮВ - юго-восточный, Ю - южный, ЮЗ - юго-западный, З - западный, СЗ - северо-западный.
Видимость - горизонтальная дальность видимости в метрах или километрах. При видимости от 1 до 10 км при отсутствии осадков обычно наблюдается дымка, при ухудшении видимости до 1 км и менее - туман. В сухую погоду видимость может ухудшаться дымом, пылью или мглою.
Явления - указаны атмосферные явления, наблюдавшиеся в срок или в последний час перед сроком; фигурными скобками обозначены явления, наблюдавшиеся между сроками (за 1-3 часа до срока); квадратными скобками обозначены град или гололедные отложения с указанием их диаметра в мм.
Облачность - указаны через наклонную черту общая и нижняя облачность в баллах и высота нижней границы облаков в метрах; квадратными скобками обозначены формы облаков: Ci - перистые, Cs - перисто-слоистые, Cc - перисто-кучевые, Ac - высококучевые, As - высокослоистые, Sc - слоисто-кучевые, Ns - слоисто-дождевые, Cu - кучевые, Cb - кучево-дождевые. Подробнее классификацию облаков см. в Атласе облаков (PDF).
T - Температура воздуха - температура, измеренная на высоте 2 м над землей.
Td - Температура точки росы - температура, при понижении до которой содержащийся в воздухе водяной пар достигнет насыщения.
f - Относительная влажность воздуха - влажноcть воздуха, измеренная на высоте 2 м над землей.
Te - Эффективная температура - температура, которую ощущает одетый по сезону человек в тени. Характеристика душности погоды. При расчете учитывается влияние влажности воздуха и скорости ветра на теплоощущения человека.
Tes - Эффективная температура на солнце - температура, которую ощущает человек, с поправкой на солнечный нагрев. Характеристика знойности погоды. Зависит от высоты солнца над горизонтом, облачности и скорости ветра. Ночью, в пасмурную погоду, а также при ветре 12 м/с и более поправка равна нулю.
P - Атмосферное давление - приведенное к уровню моря атмосферное давление.
Po - Атмосферное давление - измеренное на уровне метеостанции атмосферное давление.
Tmin - Минимальная температура - минимум температуры воздуха на высоте 2 м над землей.
Tmax - Максимальная температура - максимум температуры воздуха на высоте 2 м над землей.
R - Количество осадков - Количество выпавших осадков за период времени, мм. При наведении курсора мыши на число - период времени, за который выпало указанное количество осадков.
R24 - Количество осадков - Количество выпавших осадков за 24 часа, мм.
S - Снежный покров - Высота снежного покрова, см. При наведении курсора мыши на число - состояние снежного покрова и степень покрытия местности в баллах.